This is the latest recevied weather packets stored in our database for station/object CE3MXM-13. If no packets are shown the sender has not sent any weather packets the latest 10 day(s).
| Time | Temp. | Humidity | Pressure | Rain* | Wind** | Luminosity | Snow |
|---|---|---|---|---|---|---|---|
| 1777484260 | 26.11° C | 45% | 1010.3 hPa | - | - | - | - |
| 1777483960 | 26.11° C | 44% | 1010.4 hPa | - | - | - | - |
| 1777483660 | 25.56° C | 46% | 1010.4 hPa | - | - | - | - |
| 1777483360 | 25.56° C | 43% | 1010.4 hPa | - | - | - | - |
| 1777483060 | 25.56° C | 44% | 1010.5 hPa | - | - | - | - |
| 1777482760 | 25° C | 46% | 1010.6 hPa | - | - | - | - |
| 1777482460 | 25° C | 45% | 1010.6 hPa | - | - | - | - |
| 1777482160 | 25° C | 46% | 1010.7 hPa | - | - | - | - |
| 1777481860 | 25° C | 45% | 1010.7 hPa | - | - | - | - |
| 1777481559 | 25° C | 46% | 1010.6 hPa | - | - | - | - |
| 1777481259 | 24.44° C | 46% | 1011 hPa | - | - | - | - |
| 1777480959 | 24.44° C | 49% | 1010.8 hPa | - | - | - | - |
| 1777480659 | 24.44° C | 47% | 1011 hPa | - | - | - | - |
| 1777480359 | 25° C | 48% | 1010.8 hPa | - | - | - | - |
| 1777480059 | 24.44° C | 49% | 1011 hPa | - | - | - | - |
| 1777479759 | 24.44° C | 50% | 1011 hPa | - | - | - | - |
| 1777479459 | 23.89° C | 51% | 1011 hPa | - | - | - | - |
| 1777479159 | 23.89° C | 50% | 1011.1 hPa | - | - | - | - |
| 1777478858 | 23.89° C | 50% | 1011.3 hPa | - | - | - | - |
| 1777478558 | 23.89° C | 52% | 1011.3 hPa | - | - | - | - |
| 1777478258 | 23.33° C | 53% | 1011.3 hPa | - | - | - | - |
| 1777477958 | 23.33° C | 52% | 1011.5 hPa | - | - | - | - |
| 1777477658 | 23.33° C | 53% | 1011.5 hPa | - | - | - | - |
| 1777477358 | 22.78° C | 53% | 1011.7 hPa | - | - | - | - |
| 1777477058 | 22.78° C | 53% | 1011.4 hPa | - | - | - | - |
* Rain since midnight (hover to see other rain measurements)
** Current wind speed in m/s (hover to see current wind gust speed)